SKYNET 5B

Last updated on Sun Apr 12 2026 00:02:51 GMT+0000 (Coordinated Universal Time)

1 32294U 07056B 26101.30669831 .00000145 00000+0 00000+0 0 9992 2 32294 5.0837 74.2822 0003848 299.2436 321.5183 1.00269089 67526
UTC large
Height (km)
Speed (km/s)
/
Latitude / Longitude
Inclination (degrees)
Orbital Period (minutes)
Azimuth
Elevation
Range (km)
Doppler Factor

Next 0 passes for location: London (51.5072 / 0.1276)

Sorry there are no passes over London.
SKYNET 5B